Regional Weather Roundup
Issued by NWS

Home | Current Version | Previous Version | Graphics & Text | Print | Product List | Glossary On
Versions: 1 2 3 4 5 6 7 8 9 10 11 12 13 14 15 16 17 18 19 20 21 22 23 24 25 26 27 28 29 30 31 32 33 34 35 36 37 38 39 40 41 42 43 44 45 46 47 48 49 50
000
ASUS43 KMPX 290810
RWRMN
WEATHER ROUNDUP FOR MINNESOTA
NATIONAL WEATHER SERVICE TWIN CITIES/CHANHASSEN MN
300 AM CDT SAT JUL 29 2017


NOTE: "FAIR" INDICATES FEW OR NO CLOUDS BELOW 12,000 FEET WITH NO
SIGNIFICANT WEATHER AND/OR OBSTRUCTIONS TO VISIBILITY. N/A MEANS
CURRENT SKY AND/OR WEATHER CONDITIONS ARE NOT AVAILABLE.

MNZ060>063-068>070-290900-
   Twin Cities Metro

CITY           SKY/WX    TMP DP  RH WIND       PRES   REMARKS
TWIN CITIES    CLEAR     69  55  60 CALM      30.11R
ST PAUL        CLEAR     65  61  87 CALM      30.11R
CRYSTAL        CLEAR     61  56  83 CALM      30.09S
BLAINE         CLEAR     63  61  94 CALM      30.11R
LAKEVILLE      CLEAR     55  55 100 CALM      30.11S
EDEN PRAIRIE   CLEAR     66  59  78 CALM      30.10R
SOUTH ST PAUL  CLEAR     64  59  84 CALM      30.11R
LAKE ELMO      FAIR      59  59 100 CALM      30.12S
$$
MNZ001>005-007-008-013>017-022>024-027-028-290900-
   Northwest Minnesota

CITY           SKY/WX    TMP DP  RH WIND       PRES   REMARKS
BEMIDJI        CLEAR     65  60  83 SW5       30.10S
HALLOCK        CLEAR     63  61  94 SE7       30.02R
ROSEAU         CLEAR     61  55  82 S6        30.05R
WARROAD        CLEAR     64  61  88 CALM      30.06R
THIEF RVR FALL CLEAR     65  59  81 S7        30.07S
CROOKSTON      CLEAR     63  61  94 SE7       30.05S
FOSSTON        CLEAR     63  61  94 SE5       30.09S
DETROIT LAKES  CLEAR     68  63  83 S5        30.11S
MOORHEAD       CLEAR     64  61  88 S7        30.07S
PARK RAPIDS    CLEAR     66  60  81 CALM      30.11R
MAHNOMEN       FAIR      64  61  88 S6        30.09S
$$
MNZ006-009>011-018-025>026-290900-
   North Central Minnesota

CITY           SKY/WX    TMP DP  RH WIND       PRES   REMARKS
BAUDETTE       CLEAR     62  60  93 CALM      30.06S
FLAG ISLAND    CLEAR     70  66  88 CALM      30.03S
INTL FALLS     FOG       55  54  96 CALM      30.08R VSB 3/4
WASKISH        CLEAR     63  61  94 CALM      30.08S
BIG FORK       CLEAR     57  55  94 CALM      30.11R FOG
LONGVILLE      CLEAR     57  57 100 CALM      30.11S
GRAND RAPIDS   PTCLDY    61  59  93 S3        30.13S
CRANE LAKE     CLEAR     54  54 100 CALM      30.11S
ORR            CLEAR     61  55  82 CALM      30.09R
COOK             N/A     59  57  94 CALM      30.12R
WALKER         FAIR      66  58  76 SW3       30.11S
$$
MNZ012-019>021-037-290900-
   Northeast Minnesota

CITY           SKY/WX    TMP DP  RH WIND       PRES   REMARKS
DULUTH         PTCLDY    61  57  87 E3        30.12S
ELY            CLEAR     55  54  94 CALM      30.13R
HIBBING        CLEAR     53  53 100 CALM      30.12R FOG
EVELETH        CLEAR     55  52  90 CALM      30.13S
DULUTH HARBOR  PTCLDY    66  63  88 NE7       30.12R
TWO HARBORS    CLEAR     57  52  82 CALM      30.11R
SILVER BAY     CLEAR     55  54  94 CALM      30.11R
GRAND MARAIS     N/A     56  53  90 CALM      30.10S
G MARAIS ARPRT CLEAR     52  46  82 CALM      30.15S
$$
MNZ029>031-032-039>041-046>048-054>057-064-290900-
   West Central Minnesota

CITY           SKY/WX    TMP DP  RH WIND       PRES   REMARKS
FERGUS FALLS   CLEAR     66  61  82 S5        30.09R
WHEATON        CLEAR     61  57  88 SE5       30.10R
MORRIS         CLEAR     64  59  82 SE6       30.09R
ALEXANDRIA     CLEAR     65  60  84 SE3       30.12S
ELBOW LAKE     FAIR      65  61  88 CALM      30.10S
WADENA         CLEAR     57  57 100 CALM      30.11R
GLENWOOD       CLEAR     63  61  94 SE3       30.12R
APPLETON       CLEAR     66  61  82 S3        30.09R
BENSON         CLEAR     63  59  88 CALM      30.11S
ORTONVILLE       N/A     64  61  88 CALM        N/A
MADISON        CLEAR     64  64 100 CALM      30.09S
WILLMAR        FAIR      64  61  88 SE3       30.12S
$$
MNZ033>034-036-042>043-049>051-058-059-290900-
   Central Minnesota

CITY           SKY/WX    TMP DP  RH WIND       PRES   REMARKS
ST CLOUD       CLEAR     59  59 100 CALM      30.11R
SAUK CENTRE    FAIR      60  59  96 CALM      30.11S
PAYNESVILLE    CLEAR     67  61  80 S6        30.12R
AITKIN         MOCLDY    54  52  94 CALM      30.11R FOG
PINE RIVER     CLEAR     57  57 100 MISG      30.15R
BRAINERD       PTCLDY    59  59 100 CALM      30.12R
STAPLES        CLEAR     61  59  94 CALM      30.11S
LONG PRAIRIE   FAIR      59  59 100 CALM      30.12R
LITTLE FALLS   CLEAR     59  55  88 CALM      30.11S
LITCHFIELD     CLEAR     68  61  77 CALM      30.12R
BUFFALO        CLEAR     62  57  84 CALM      30.12S
MAPLE LAKE     CLEAR     66  60  82 CALM      30.12R
HUTCHINSON     CLEAR     59  58  97 CALM      30.12S
$$
MNZ037-044-045-052-053-290900-
   East Central Minnesota

CITY           SKY/WX    TMP DP  RH WIND       PRES   REMARKS
PRINCETON      CLEAR     57  57 100 CALM      30.12R FOG
MORA           CLEAR     55  55 100 CALM      30.13R FOG
CAMBRIDGE      CLEAR     61  55  82 CALM      30.10R
RUSH CITY      MOCLDY    57  56  96 CALM      30.11S
MOOSE LAKE     CLEAR     57  55  94 CALM      30.11R
HINCKLEY       FAIR      57  57 100 CALM      30.12R
CLOQUET        CLEAR     57  55  94 CALM      30.12S
MCGREGOR       CLEAR     59  55  88 CALM      30.13R
$$
MNZ071>073-080-081-089-090-097-098-290900-
   Southwest Minnesota

CITY           SKY/WX    TMP DP  RH WIND       PRES   REMARKS
MONTEVIDEO     CLEAR     64  61  88 S5        30.10S
GRANITE FALLS  CLEAR     63  60  91 SE5       30.11S
CANBY          CLEAR     62  59  90 CALM      30.11S
MARSHALL       CLEAR     62  60  93 S3        30.10S
REDWOOD FALLS  PTCLDY    62  58  86 S3        30.10R
OLIVIA         PTCLDY    63  59  88 SE3       30.10R
PIPESTONE      CLEAR     64  61  88 SE3       30.11S
WINDOM         CLEAR     64  57  77 CALM      30.12S
WORTHINGTON    CLEAR     61  59  93 SE6       30.12S
JACKSON        CLEAR     63  59  88 CALM      30.12S
TRACY          CLEAR     68  61  79 S6        30.11S
SLAYTON        HVY RAIN  61  55  79 CALM      30.12F
$$
MNZ065>067-074>077-082>085-091>093-290900-
   South Central Minnesota

CITY           SKY/WX    TMP DP  RH WIND       PRES   REMARKS
MANKATO        CLEAR     63  58  83 SE6       30.12R
NEW ULM        PTCLDY    63  57  82 SE3       30.11S
ST JAMES       PTCLDY    61  59  94 SE5       30.12S
GLENCOE        CLEAR     63  60  91 CALM      30.11R
FARIBAULT      CLEAR     57  57 100 CALM      30.12S
OWATONNA       PTCLDY    59  55  88 SE5       30.12S
WASECA         PTCLDY    55  55 100 CALM      30.13S
ALBERT LEA     CLEAR     61  61 100 CALM      30.12S
$$
MNZ078>079-086>088-094>096-290900-
   Southeast Minnesota

CITY           SKY/WX    TMP DP  RH WIND       PRES   REMARKS
ROCHESTER      CLEAR     58  56  93 S6        30.13S
RED WING       CLEAR     59  55  88 CALM      30.10R
STANTON        CLEAR     57  55  94 CALM      30.11R FOG
DODGE CENTER   CLEAR     59  54  82 CALM      30.12F
WINONA         CLEAR     59  57  94 CALM      30.12R
AUSTIN         CLEAR     57  55  94 CALM      30.12S
PRESTON        CLEAR     60  55  84 CALM      30.13S
$$
ABBREVIATIONS USED IN REMARKS
   TC - TEMPERATURES IN CELSIUS
  WCI - WIND CHILL INDEX
   HX - HEAT INDEX
  VSB - VISIBILITY
$$



USA.gov is the U.S. government's official web portal to all federal, state and local government web resources and services.